Retour au catalogue

CZ-6A DEB

ActifSSO
NORAD 55524·DEBRIS·🇨🇳 China

Lancé Nov 11, 2022 depuis Taiyuan Satellite Launch Center

Loading…

Prochains Passages (prochaines 24 heures)

TLE

FraisSource: Space-Track

Époque: Sep 14, 2026, 11:20 UTC

1 55524U 22151XW  26257.47273877  .00001734  00000-0  87467-3 0  9999
2 55524  98.8521 262.3022 0055022  76.3903 284.3391 14.16810839192491

Suivez CZ-6A DEB en temps réel avec AllMySat

Download on the App Store